,,,PA_Meas_PMT16A,,PR_Meas_QMR101_102,,RH_Meas_QMH101,,SR_Meas_QMS101,,TA_Meas_QMH101,,GenWind,,GenWind,
date,time,status,PA,status,PR,status,RH,status,SR,status,TA,status,DirAvg,status,SpdAvg,
2010-10-17, 00:00:04,VALID,1009.3,VALID,0,VALID,103.298,VALID,0,VALID,23.8694,VALID,54,VALID,0,
2010-10-17, 00:01:04,VALID,1009.3,VALID,0,VALID,103.306,VALID,0.105969,VALID,23.8481,VALID,54,VALID,0,
2010-10-17, 00:02:04,VALID,1009.27,VALID,0,VALID,103.291,VALID,0,VALID,23.8499,VALID,54,VALID,0,
2010-10-17, 00:03:04,VALID,1009.26,VALID,0,VALID,103.314,VALID,0.105969,VALID,23.8481,VALID,54,VALID,0,
2010-10-17, 00:04:04,VALID,1009.23,VALID,0,VALID,103.367,VALID,0,VALID,23.8286,VALID,54,VALID,0,
2010-10-17, 00:05:04,VALID,1009.21,VALID,0,VALID,103.375,VALID,0,VALID,23.8286,VALID,54,VALID,0,
2010-10-17, 00:06:04,VALID,1009.18,VALID,0,VALID,103.398,VALID,0.105969,VALID,23.8481,VALID,54,VALID,0,
2010-10-17, 00:07:04,VALID,1009.19,VALID,0,VALID,103.405,VALID,0,VALID,23.8481,VALID,54,VALID,0,
2010-10-17, 00:08:04,VALID,1009.21,VALID,0,VALID,103.405,VALID,0,VALID,23.8481,VALID,54,VALID,0,
2010-10-17, 00:09:04,VALID,1009.23,VALID,0,VALID,103.42,VALID,0,VALID,23.8889,VALID,54,VALID,0.65625,
2010-10-17, 00:10:04,VALID,1009.21,VALID,0,VALID,103.443,VALID,0.105969,VALID,23.9278,VALID,54,VALID,0.669922,
2010-10-17, 00:11:04,VALID,1009.21,VALID,0,VALID,103.451,VALID,0.105969,VALID,23.9473,VALID,54,VALID,0.342969,
2010-10-17, 00:12:04,VALID,1009.21,VALID,0,VALID,103.443,VALID,0,VALID,23.9473,VALID,54,VALID,0.100391,
2010-10-17, 00:13:04,VALID,1009.18,VALID,0,VALID,103.398,VALID,0,VALID,23.9455,VALID,54,VALID,0,
2010-10-17, 00:14:04,VALID,1009.18,VALID,0,VALID,103.352,VALID,0.105969,VALID,23.9455,VALID,54,VALID,0,
2010-10-17, 00:15:04,VALID,1009.18,VALID,0,VALID,103.321,VALID,0.105969,VALID,23.9473,VALID,54,VALID,0,
2010-10-17, 00:16:04,VALID,1009.16,VALID,0,VALID,103.314,VALID,0,VALID,23.9455,VALID,54,VALID,0.43125,
2010-10-17, 00:17:04,VALID,1009.17,VALID,0,VALID,103.283,VALID,0,VALID,23.965,VALID,54,VALID,0.129688,
2010-10-17, 00:18:04,VALID,1009.13,VALID,0,VALID,103.253,VALID,0.105969,VALID,23.965,VALID,54,VALID,0,
2010-10-17, 00:19:04,VALID,1009.12,VALID,0,VALID,103.23,VALID,0.105969,VALID,23.9455,VALID,54,VALID,0,
2010-10-17, 00:20:04,VALID,1009.11,VALID,0,VALID,103.192,VALID,0.105969,VALID,23.965,VALID,54,VALID,0.228516,
2010-10-17, 00:21:04,VALID,1009.1,VALID,0,VALID,103.169,VALID,0,VALID,23.9455,VALID,54,VALID,0.0886719,
2010-10-17, 00:22:04,VALID,1009.07,VALID,0,VALID,103.161,VALID,0,VALID,23.9668,VALID,54,VALID,0,
2010-10-17, 00:23:04,VALID,1009.06,VALID,0,VALID,103.108,VALID,0,VALID,23.926,VALID,54,VALID,0.0304688,
2010-10-17, 00:24:04,VALID,1009.04,VALID,0,VALID,103.138,VALID,0,VALID,23.9455,VALID,54,VALID,0,
2010-10-17, 00:25:04,VALID,1009.03,VALID,0,VALID,103.138,VALID,0.105969,VALID,23.965,VALID,54,VALID,0,
2010-10-17, 00:26:04,VALID,1009.03,VALID,0,VALID,103.146,VALID,0,VALID,23.9668,VALID,54,VALID,0,
2010-10-17, 00:27:04,VALID,1009.02,VALID,0,VALID,103.169,VALID,0.105969,VALID,23.9863,VALID,54,VALID,0,
2010-10-17, 00:28:04,VALID,1009.06,VALID,0,VALID,103.222,VALID,0.105969,VALID,23.9845,VALID,54,VALID,0.154687,
2010-10-17, 00:29:04,VALID,1009.05,VALID,0,VALID,103.169,VALID,0.105969,VALID,24.004,VALID,54,VALID,0.239453,
2010-10-17, 00:30:04,VALID,1009.01,VALID,0,VALID,103.146,VALID,0,VALID,24.004,VALID,54,VALID,0.317187,
2010-10-17, 00:31:04,VALID,1008.99,VALID,0,VALID,103.123,VALID,0.105969,VALID,24.0235,VALID,54,VALID,0,
2010-10-17, 00:32:04,VALID,1008.97,VALID,0,VALID,103.054,VALID,0.105969,VALID,24.0235,VALID,54,VALID,0,
2010-10-17, 00:33:04,VALID,1008.94,VALID,0,VALID,102.925,VALID,0.105969,VALID,24.0253,VALID,54,VALID,0.133203,
2010-10-17, 00:34:04,VALID,1008.89,VALID,0,VALID,102.864,VALID,0.105969,VALID,23.9845,VALID,54,VALID,0,
2010-10-17, 00:35:04,VALID,1008.89,VALID,0,VALID,102.841,VALID,0.105969,VALID,23.9845,VALID,54,VALID,0,
2010-10-17, 00:36:04,VALID,1008.88,VALID,0,VALID,102.849,VALID,0.105969,VALID,23.9455,VALID,54,VALID,0,
2010-10-17, 00:37:04,VALID,1008.84,VALID,0,VALID,102.849,VALID,0,VALID,23.9473,VALID,54,VALID,0,
2010-10-17, 00:38:04,VALID,1008.85,VALID,0,VALID,102.849,VALID,0,VALID,23.9278,VALID,54,VALID,0,
2010-10-17, 00:39:04,VALID,1008.84,VALID,0,VALID,102.887,VALID,0,VALID,23.9473,VALID,54,VALID,0,
2010-10-17, 00:40:04,VALID,1008.82,VALID,0,VALID,102.94,VALID,0,VALID,23.9278,VALID,54,VALID,0,
2010-10-17, 00:41:04,VALID,1008.82,VALID,0,VALID,102.963,VALID,0,VALID,23.9278,VALID,54,VALID,0,
2010-10-17, 00:42:04,VALID,1008.79,VALID,0,VALID,103.009,VALID,0,VALID,23.9102,VALID,54,VALID,0,
2010-10-17, 00:43:04,VALID,1008.81,VALID,0,VALID,103.024,VALID,0,VALID,23.8889,VALID,54,VALID,0.0574219,
2010-10-17, 00:44:04,VALID,1008.78,VALID,0,VALID,103.077,VALID,0,VALID,23.8694,VALID,54,VALID,0.19375,
2010-10-17, 00:45:04,VALID,1008.76,VALID,0,VALID,103.108,VALID,0,VALID,23.8694,VALID,54,VALID,0.146875,
2010-10-17, 00:46:04,VALID,1008.75,VALID,0,VALID,103.154,VALID,0,VALID,23.8712,VALID,54,VALID,0,
2010-10-17, 00:47:04,VALID,1008.73,VALID,0,VALID,103.199,VALID,0,VALID,23.8304,VALID,54,VALID,0,
2010-10-17, 00:48:04,VALID,1008.71,VALID,0,VALID,103.253,VALID,0,VALID,23.8304,VALID,54,VALID,0,
2010-10-17, 00:49:04,VALID,1008.68,VALID,0,VALID,103.276,VALID,0,VALID,23.8304,VALID,54,VALID,0,
2010-10-17, 00:50:04,VALID,1008.68,VALID,0,VALID,103.337,VALID,0,VALID,23.8499,VALID,54,VALID,0,
2010-10-17, 00:51:04,VALID,1008.67,VALID,0,VALID,103.367,VALID,0,VALID,23.8304,VALID,54,VALID,0.216797,
2010-10-17, 00:52:04,VALID,1008.63,VALID,0,VALID,103.367,VALID,0.105969,VALID,23.8481,VALID,54,VALID,0.225,
2010-10-17, 00:53:04,VALID,1008.64,VALID,0,VALID,103.359,VALID,0.105969,VALID,23.8481,VALID,54,VALID,0.129688,
2010-10-17, 00:54:04,VALID,1008.65,VALID,0,VALID,103.337,VALID,0.105969,VALID,23.8286,VALID,54,VALID,0,
2010-10-17, 00:55:04,VALID,1008.65,VALID,0,VALID,103.329,VALID,0.105969,VALID,23.8091,VALID,54,VALID,0,
2010-10-17, 00:56:04,VALID,1008.62,VALID,0,VALID,103.314,VALID,0.105969,VALID,23.8304,VALID,54,VALID,0,
2010-10-17, 00:57:04,VALID,1008.65,VALID,0,VALID,103.321,VALID,0,VALID,23.7896,VALID,54,VALID,0,
2010-10-17, 00:58:04,VALID,1008.65,VALID,0,VALID,103.314,VALID,0.105969,VALID,23.7896,VALID,54,VALID,0,
2010-10-17, 00:59:04,VALID,1008.61,VALID,0,VALID,103.359,VALID,0.105969,VALID,23.7701,VALID,54,VALID,0,
2010-10-17, 01:00:04,VALID,1008.59,VALID,0,VALID,103.367,VALID,0.105969,VALID,23.7701,VALID,54,VALID,0,
2010-10-17, 01:01:04,VALID,1008.6,VALID,0,VALID,103.359,VALID,0.105969,VALID,23.7507,VALID,54,VALID,0,
2010-10-17, 01:02:04,VALID,1008.58,VALID,0,VALID,103.367,VALID,0,VALID,23.772,VALID,54,VALID,0,
2010-10-17, 01:03:04,VALID,1008.57,VALID,0,VALID,103.39,VALID,0.105969,VALID,23.7312,VALID,54,VALID,0,
2010-10-17, 01:04:04,VALID,1008.56,VALID,0,VALID,103.39,VALID,0,VALID,23.7117,VALID,54,VALID,0,
2010-10-17, 01:05:04,VALID,1008.53,VALID,0,VALID,103.398,VALID,0,VALID,23.7117,VALID,54,VALID,0,
2010-10-17, 01:06:04,VALID,1008.52,VALID,0,VALID,103.42,VALID,0.105969,VALID,23.7117,VALID,54,VALID,0,
2010-10-17, 01:07:04,VALID,1008.51,VALID,0,VALID,103.451,VALID,0,VALID,23.694,VALID,54,VALID,0,
2010-10-17, 01:08:04,VALID,1008.46,VALID,0,VALID,103.443,VALID,0,VALID,23.694,VALID,54,VALID,0,
2010-10-17, 01:09:04,VALID,1008.46,VALID,0,VALID,103.459,VALID,0,VALID,23.694,VALID,54,VALID,0,
2010-10-17, 01:10:04,VALID,1008.46,VALID,0,VALID,103.474,VALID,0,VALID,23.7153,VALID,54,VALID,0,
2010-10-17, 01:11:04,VALID,1008.45,VALID,0,VALID,103.504,VALID,0,VALID,23.694,VALID,54,VALID,0,
2010-10-17, 01:12:04,VALID,1008.38,VALID,0,VALID,103.535,VALID,0,VALID,23.7153,VALID,54,VALID,0.254297,
2010-10-17, 01:13:04,VALID,1008.36,VALID,0,VALID,103.558,VALID,0,VALID,23.694,VALID,54,VALID,0.174609,
2010-10-17, 01:14:04,VALID,1008.36,VALID,0,VALID,103.573,VALID,0,VALID,23.694,VALID,54,VALID,0,
2010-10-17, 01:15:04,VALID,1008.36,VALID,0,VALID,103.581,VALID,0,VALID,23.694,VALID,54,VALID,0,
2010-10-17, 01:16:04,VALID,1008.33,VALID,0,VALID,103.603,VALID,0,VALID,23.6922,VALID,54,VALID,0,
2010-10-17, 01:17:04,VALID,1008.3,VALID,0,VALID,103.603,VALID,0,VALID,23.6745,VALID,54,VALID,0,
2010-10-17, 01:18:04,VALID,1008.31,VALID,0,VALID,103.596,VALID,0,VALID,23.6745,VALID,54,VALID,0,
2010-10-17, 01:19:04,VALID,1008.3,VALID,0,VALID,103.581,VALID,0,VALID,23.6745,VALID,54,VALID,0,
2010-10-17, 01:20:04,VALID,1008.32,VALID,0,VALID,103.588,VALID,0,VALID,23.655,VALID,54,VALID,0,
2010-10-17, 01:21:04,VALID,1008.32,VALID,0,VALID,103.588,VALID,0,VALID,23.6356,VALID,54,VALID,0,
2010-10-17, 01:22:04,VALID,1008.32,VALID,0,VALID,103.558,VALID,0.105969,VALID,23.6532,VALID,54,VALID,0,
2010-10-17, 01:23:04,VALID,1008.32,VALID,0,VALID,103.565,VALID,0.105969,VALID,23.6338,VALID,54,VALID,0,
2010-10-17, 01:24:04,VALID,1008.31,VALID,0,VALID,103.603,VALID,0.105969,VALID,23.6338,VALID,54,VALID,0,
2010-10-17, 01:25:04,VALID,1008.3,VALID,0,VALID,103.596,VALID,0.105969,VALID,23.6143,VALID,54,VALID,0,
2010-10-17, 01:26:04,VALID,1008.29,VALID,0,VALID,103.603,VALID,0.105969,VALID,23.655,VALID,54,VALID,0,
2010-10-17, 01:27:04,VALID,1008.3,VALID,0,VALID,103.626,VALID,0,VALID,23.6356,VALID,54,VALID,0,
2010-10-17, 01:28:04,VALID,1008.32,VALID,0,VALID,103.642,VALID,0.105969,VALID,23.6143,VALID,54,VALID,0,
2010-10-17, 01:29:04,VALID,1008.28,VALID,0,VALID,103.626,VALID,0.105969,VALID,23.6356,VALID,54,VALID,0,
2010-10-17, 01:30:04,VALID,1008.29,VALID,0,VALID,103.664,VALID,0.105969,VALID,23.5948,VALID,54,VALID,0,
2010-10-17, 01:31:04,VALID,1008.27,VALID,0,VALID,103.649,VALID,0.105969,VALID,23.6143,VALID,54,VALID,0,
2010-10-17, 01:32:04,VALID,1008.3,VALID,0,VALID,103.664,VALID,0.105969,VALID,23.5948,VALID,54,VALID,0,
2010-10-17, 01:33:04,VALID,1008.27,VALID,0,VALID,103.664,VALID,0.105969,VALID,23.5948,VALID,54,VALID,0,
2010-10-17, 01:34:04,VALID,1008.25,VALID,0,VALID,103.649,VALID,0.105969,VALID,23.5948,VALID,54,VALID,0,
2010-10-17, 01:35:04,VALID,1008.21,VALID,0,VALID,103.657,VALID,0.105969,VALID,23.6143,VALID,54,VALID,0,
2010-10-17, 01:36:04,VALID,1008.23,VALID,0,VALID,103.664,VALID,0.105969,VALID,23.6356,VALID,54,VALID,0,
2010-10-17, 01:37:04,VALID,1008.22,VALID,0,VALID,103.68,VALID,0,VALID,23.5966,VALID,54,VALID,0,
2010-10-17, 01:38:04,VALID,1008.24,VALID,0,VALID,103.703,VALID,0,VALID,23.5966,VALID,54,VALID,0,
2010-10-17, 01:39:04,VALID,1008.22,VALID,0,VALID,103.68,VALID,0,VALID,23.5771,VALID,54,VALID,0,
2010-10-17, 01:40:04,VALID,1008.22,VALID,0,VALID,103.703,VALID,0,VALID,23.5771,VALID,54,VALID,0,
2010-10-17, 01:41:04,VALID,1008.19,VALID,0,VALID,103.687,VALID,0,VALID,23.5984,VALID,54,VALID,0,
2010-10-17, 01:42:04,VALID,1008.18,VALID,0,VALID,103.687,VALID,0,VALID,23.5771,VALID,54,VALID,0,
2010-10-17, 01:43:04,VALID,1008.17,VALID,0,VALID,103.703,VALID,0,VALID,23.5576,VALID,54,VALID,0,
2010-10-17, 01:44:04,VALID,1008.18,VALID,0,VALID,103.687,VALID,0,VALID,23.5576,VALID,54,VALID,0,
2010-10-17, 01:45:04,VALID,1008.15,VALID,0,VALID,103.672,VALID,0,VALID,23.5789,VALID,54,VALID,0,
2010-10-17, 01:46:04,VALID,1008.11,VALID,0,VALID,103.703,VALID,0,VALID,23.5576,VALID,54,VALID,0,
2010-10-17, 01:47:04,VALID,1008.1,VALID,0,VALID,103.68,VALID,0,VALID,23.5381,VALID,54,VALID,0,
2010-10-17, 01:48:04,VALID,1008.12,VALID,0,VALID,103.718,VALID,0,VALID,23.5381,VALID,54,VALID,0,
2010-10-17, 01:49:04,VALID,1008.1,VALID,0,VALID,103.703,VALID,0,VALID,23.5399,VALID,54,VALID,0,
2010-10-17, 01:50:04,VALID,1008.06,VALID,0,VALID,103.703,VALID,0,VALID,23.5381,VALID,54,VALID,0,
2010-10-17, 01:51:04,VALID,1008.09,VALID,0,VALID,103.703,VALID,0,VALID,23.5186,VALID,54,VALID,0,
2010-10-17, 01:52:04,VALID,1008.07,VALID,0,VALID,103.703,VALID,0,VALID,23.4992,VALID,54,VALID,0,
2010-10-17, 01:53:04,VALID,1008.05,VALID,0,VALID,103.71,VALID,0,VALID,23.4992,VALID,54,VALID,0,
2010-10-17, 01:54:04,VALID,1008.04,VALID,0,VALID,103.71,VALID,0,VALID,23.4797,VALID,54,VALID,0,
2010-10-17, 01:55:04,VALID,1008.04,VALID,0,VALID,103.695,VALID,0,VALID,23.4992,VALID,54,VALID,0,
2010-10-17, 01:56:04,VALID,1008.04,VALID,0,VALID,103.695,VALID,0,VALID,23.4992,VALID,54,VALID,0,
2010-10-17, 01:57:04,VALID,1008.04,VALID,0,VALID,103.687,VALID,0,VALID,23.4992,VALID,54,VALID,0,
2010-10-17, 01:58:04,VALID,1008.03,VALID,0,VALID,103.695,VALID,0,VALID,23.5399,VALID,54,VALID,0,
2010-10-17, 01:59:04,VALID,1008.03,VALID,0,VALID,103.68,VALID,0,VALID,23.5381,VALID,54,VALID,0,
2010-10-17, 02:00:04,VALID,1008.05,VALID,0,VALID,103.687,VALID,0,VALID,23.5186,VALID,54,VALID,0,
2010-10-17, 02:01:04,VALID,1008.06,VALID,0,VALID,103.703,VALID,0,VALID,23.5186,VALID,54,VALID,0,
2010-10-17, 02:02:04,VALID,1008.05,VALID,0,VALID,103.71,VALID,0,VALID,23.5186,VALID,54,VALID,0,
2010-10-17, 02:03:04,VALID,1008.05,VALID,0,VALID,103.726,VALID,0,VALID,23.4992,VALID,54,VALID,0,
2010-10-17, 02:04:04,VALID,1008.05,VALID,0,VALID,103.733,VALID,0,VALID,23.4797,VALID,54,VALID,0,
2010-10-17, 02:05:04,VALID,1008.07,VALID,0,VALID,103.703,VALID,0,VALID,23.4797,VALID,54,VALID,0,
2010-10-17, 02:06:04,VALID,1008.05,VALID,0,VALID,103.703,VALID,0,VALID,23.4992,VALID,54,VALID,0,
2010-10-17, 02:07:04,VALID,1008.05,VALID,0,VALID,103.703,VALID,0,VALID,23.4992,VALID,54,VALID,0,
2010-10-17, 02:08:04,VALID,1008.06,VALID,0,VALID,103.718,VALID,0,VALID,23.5186,VALID,54,VALID,0,
2010-10-17, 02:09:04,VALID,1008.03,VALID,0,VALID,103.71,VALID,0,VALID,23.5186,VALID,54,VALID,0,
2010-10-17, 02:10:04,VALID,1008.02,VALID,0,VALID,103.726,VALID,0,VALID,23.4992,VALID,54,VALID,0,
2010-10-17, 02:11:04,VALID,1008.02,VALID,0,VALID,103.718,VALID,0,VALID,23.4992,VALID,54,VALID,0,
2010-10-17, 02:12:04,VALID,1008,VALID,0,VALID,103.733,VALID,0,VALID,23.4602,VALID,54,VALID,0,
2010-10-17, 02:13:04,VALID,1008.01,VALID,0,VALID,103.726,VALID,0,VALID,23.4407,VALID,54,VALID,0,
2010-10-17, 02:14:04,VALID,1007.98,VALID,0,VALID,103.733,VALID,0,VALID,23.4212,VALID,54,VALID,0,
2010-10-17, 02:15:04,VALID,1007.97,VALID,0,VALID,103.733,VALID,0,VALID,23.4407,VALID,54,VALID,0,
2010-10-17, 02:16:04,VALID,1007.94,VALID,0,VALID,103.718,VALID,0,VALID,23.4212,VALID,54,VALID,0,
2010-10-17, 02:17:04,VALID,1007.94,VALID,0,VALID,103.733,VALID,0,VALID,23.4212,VALID,54,VALID,0,
2010-10-17, 02:18:04,VALID,1007.91,VALID,0,VALID,103.726,VALID,0,VALID,23.4212,VALID,54,VALID,0,
2010-10-17, 02:19:04,VALID,1007.92,VALID,0,VALID,103.733,VALID,0,VALID,23.4017,VALID,54,VALID,0,
2010-10-17, 02:20:04,VALID,1007.91,VALID,0,VALID,103.726,VALID,0,VALID,23.4212,VALID,54,VALID,0,
2010-10-17, 02:21:04,VALID,1007.89,VALID,0,VALID,103.748,VALID,0,VALID,23.423,VALID,54,VALID,0,
2010-10-17, 02:22:04,VALID,1007.89,VALID,0,VALID,103.733,VALID,0,VALID,23.4017,VALID,54,VALID,0,
2010-10-17, 02:23:04,VALID,1007.86,VALID,0,VALID,103.741,VALID,0,VALID,23.3823,VALID,54,VALID,0,
2010-10-17, 02:24:04,VALID,1007.85,VALID,0,VALID,103.733,VALID,0,VALID,23.3823,VALID,54,VALID,0,
2010-10-17, 02:25:04,VALID,1007.86,VALID,0,VALID,103.726,VALID,0,VALID,23.3823,VALID,54,VALID,0,
2010-10-17, 02:26:04,VALID,1007.86,VALID,0,VALID,103.733,VALID,0,VALID,23.3628,VALID,54,VALID,0,
2010-10-17, 02:27:04,VALID,1007.86,VALID,0,VALID,103.741,VALID,0,VALID,23.3628,VALID,54,VALID,0,
2010-10-17, 02:28:04,VALID,1007.84,VALID,0,VALID,103.748,VALID,0,VALID,23.3823,VALID,54,VALID,0,
2010-10-17, 02:29:04,VALID,1007.86,VALID,0,VALID,103.756,VALID,0,VALID,23.3823,VALID,54,VALID,0,
2010-10-17, 02:30:04,VALID,1007.83,VALID,0,VALID,103.748,VALID,0,VALID,23.3823,VALID,54,VALID,0,
2010-10-17, 02:31:04,VALID,1007.85,VALID,0,VALID,103.726,VALID,0,VALID,23.3823,VALID,54,VALID,0,
2010-10-17, 02:32:04,VALID,1007.81,VALID,0,VALID,103.741,VALID,0,VALID,23.3823,VALID,54,VALID,0,
2010-10-17, 02:33:04,VALID,1007.81,VALID,0,VALID,103.733,VALID,0,VALID,23.4017,VALID,54,VALID,0,
2010-10-17, 02:34:04,VALID,1007.84,VALID,0,VALID,103.71,VALID,0,VALID,23.4,VALID,54,VALID,0,
2010-10-17, 02:35:04,VALID,1007.79,VALID,0,VALID,103.741,VALID,0,VALID,23.4425,VALID,54,VALID,0,
2010-10-17, 02:36:04,VALID,1007.79,VALID,0,VALID,103.726,VALID,0.105969,VALID,23.4212,VALID,54,VALID,0,
2010-10-17, 02:37:04,VALID,1007.8,VALID,0,VALID,103.741,VALID,0,VALID,23.4,VALID,54,VALID,0,
2010-10-17, 02:38:04,VALID,1007.8,VALID,0,VALID,103.748,VALID,0,VALID,23.4212,VALID,54,VALID,0,
2010-10-17, 02:39:04,VALID,1007.81,VALID,0,VALID,103.756,VALID,0,VALID,23.4017,VALID,54,VALID,0,
2010-10-17, 02:40:04,VALID,1007.83,VALID,0,VALID,103.787,VALID,0,VALID,23.3823,VALID,54,VALID,0,
2010-10-17, 02:41:04,VALID,1007.82,VALID,0,VALID,103.779,VALID,0,VALID,23.3433,VALID,54,VALID,0,
2010-10-17, 02:42:04,VALID,1007.84,VALID,0,VALID,103.779,VALID,0,VALID,23.3628,VALID,54,VALID,0,
2010-10-17, 02:43:04,VALID,1007.85,VALID,0,VALID,103.764,VALID,0,VALID,23.3433,VALID,54,VALID,0,
2010-10-17, 02:44:04,VALID,1007.86,VALID,0,VALID,103.779,VALID,0,VALID,23.322,VALID,54,VALID,0,
2010-10-17, 02:45:04,VALID,1007.86,VALID,0,VALID,103.779,VALID,0,VALID,23.3043,VALID,54,VALID,0,
2010-10-17, 02:46:04,VALID,1007.85,VALID,0,VALID,103.771,VALID,0,VALID,23.3043,VALID,54,VALID,0,
2010-10-17, 02:47:04,VALID,1007.89,VALID,0,VALID,103.756,VALID,0,VALID,23.3238,VALID,54,VALID,0,
2010-10-17, 02:48:04,VALID,1007.92,VALID,0,VALID,103.764,VALID,0,VALID,23.3238,VALID,54,VALID,0,
2010-10-17, 02:49:04,VALID,1007.91,VALID,0,VALID,103.748,VALID,0,VALID,23.3238,VALID,54,VALID,0,
2010-10-17, 02:50:04,VALID,1007.91,VALID,0,VALID,103.779,VALID,0,VALID,23.3238,VALID,54,VALID,0,
2010-10-17, 02:51:04,VALID,1007.89,VALID,0,VALID,103.787,VALID,0,VALID,23.3043,VALID,54,VALID,0,
2010-10-17, 02:52:04,VALID,1007.88,VALID,0,VALID,103.756,VALID,0,VALID,23.3043,VALID,54,VALID,0,
2010-10-17, 02:53:04,VALID,1007.87,VALID,0,VALID,103.764,VALID,0,VALID,23.3256,VALID,54,VALID,0,
2010-10-17, 02:54:04,VALID,1007.91,VALID,0,VALID,103.779,VALID,0,VALID,23.3043,VALID,54,VALID,0,
2010-10-17, 02:55:04,VALID,1007.89,VALID,0,VALID,103.771,VALID,0,VALID,23.2848,VALID,54,VALID,0,
2010-10-17, 02:56:04,VALID,1007.9,VALID,0,VALID,103.787,VALID,0,VALID,23.2459,VALID,54,VALID,0,
2010-10-17, 02:57:04,VALID,1007.89,VALID,0,VALID,103.802,VALID,0,VALID,23.2459,VALID,54,VALID,0,
2010-10-17, 02:58:04,VALID,1007.89,VALID,0,VALID,103.802,VALID,0,VALID,23.2264,VALID,54,VALID,0,
2010-10-17, 02:59:04,VALID,1007.91,VALID,0,VALID,103.771,VALID,0,VALID,23.2459,VALID,54,VALID,0,
2010-10-17, 03:00:04,VALID,1007.88,VALID,0,VALID,103.756,VALID,0,VALID,23.2654,VALID,54,VALID,0,
2010-10-17, 03:01:04,VALID,1007.86,VALID,0,VALID,103.764,VALID,0,VALID,23.2848,VALID,54,VALID,0,
2010-10-17, 03:02:04,VALID,1007.86,VALID,0,VALID,103.764,VALID,0,VALID,23.3238,VALID,54,VALID,0,
2010-10-17, 03:03:04,VALID,1007.89,VALID,0,VALID,103.748,VALID,0,VALID,23.3238,VALID,54,VALID,0,
2010-10-17, 03:04:04,VALID,1007.86,VALID,0,VALID,103.764,VALID,0,VALID,23.3238,VALID,54,VALID,0,
2010-10-17, 03:05:04,VALID,1007.87,VALID,0,VALID,103.733,VALID,0,VALID,23.3238,VALID,54,VALID,0,
2010-10-17, 03:06:04,VALID,1007.87,VALID,0,VALID,103.748,VALID,0,VALID,23.3043,VALID,54,VALID,0,
2010-10-17, 03:07:04,VALID,1007.86,VALID,0,VALID,103.756,VALID,0,VALID,23.3043,VALID,54,VALID,0,
2010-10-17, 03:08:04,VALID,1007.86,VALID,0,VALID,103.779,VALID,0,VALID,23.3043,VALID,54,VALID,0,
2010-10-17, 03:09:04,VALID,1007.89,VALID,0,VALID,103.771,VALID,0,VALID,23.3061,VALID,54,VALID,0,
2010-10-17, 03:10:04,VALID,1007.88,VALID,0,VALID,103.771,VALID,0,VALID,23.2848,VALID,54,VALID,0,
2010-10-17, 03:11:04,VALID,1007.84,VALID,0,VALID,103.771,VALID,0,VALID,23.3061,VALID,54,VALID,0,
2010-10-17, 03:12:04,VALID,1007.83,VALID,0,VALID,103.764,VALID,0,VALID,23.2848,VALID,54,VALID,0,
2010-10-17, 03:13:04,VALID,1007.8,VALID,0,VALID,103.733,VALID,0,VALID,23.2848,VALID,54,VALID,0,
2010-10-17, 03:14:04,VALID,1007.81,VALID,0,VALID,103.733,VALID,0,VALID,23.3043,VALID,54,VALID,0,
2010-10-17, 03:15:04,VALID,1007.81,VALID,0,VALID,103.741,VALID,0,VALID,23.3256,VALID,54,VALID,0,
2010-10-17, 03:16:04,VALID,1007.8,VALID,0,VALID,103.741,VALID,0,VALID,23.3238,VALID,54,VALID,0,
2010-10-17, 03:17:04,VALID,1007.79,VALID,0,VALID,103.748,VALID,0,VALID,23.3043,VALID,54,VALID,0,
2010-10-17, 03:18:04,VALID,1007.82,VALID,0,VALID,103.779,VALID,0,VALID,23.2848,VALID,54,VALID,0,
2010-10-17, 03:19:04,VALID,1007.82,VALID,0,VALID,103.764,VALID,0,VALID,23.2848,VALID,54,VALID,0,
2010-10-17, 03:20:04,VALID,1007.83,VALID,0,VALID,103.756,VALID,0,VALID,23.2459,VALID,54,VALID,0,
2010-10-17, 03:21:04,VALID,1007.83,VALID,0,VALID,103.764,VALID,0,VALID,23.2459,VALID,54,VALID,0,
2010-10-17, 03:22:04,VALID,1007.85,VALID,0,VALID,103.779,VALID,0,VALID,23.2671,VALID,54,VALID,0,
2010-10-17, 03:23:04,VALID,1007.85,VALID,0,VALID,103.779,VALID,0,VALID,23.2459,VALID,54,VALID,0,
2010-10-17, 03:24:04,VALID,1007.87,VALID,0,VALID,103.779,VALID,0,VALID,23.2264,VALID,54,VALID,0,
2010-10-17, 03:25:04,VALID,1007.87,VALID,0,VALID,103.779,VALID,0,VALID,23.2264,VALID,54,VALID,0,
2010-10-17, 03:26:04,VALID,1007.87,VALID,0,VALID,103.779,VALID,0,VALID,23.2069,VALID,54,VALID,0,
2010-10-17, 03:27:04,VALID,1007.89,VALID,0,VALID,103.779,VALID,0,VALID,23.2264,VALID,54,VALID,0,
2010-10-17, 03:28:04,VALID,1007.91,VALID,0,VALID,103.779,VALID,0,VALID,23.2069,VALID,54,VALID,0,
2010-10-17, 03:29:04,VALID,1007.92,VALID,0,VALID,103.787,VALID,0,VALID,23.2069,VALID,54,VALID,0,
2010-10-17, 03:30:04,VALID,1007.91,VALID,0,VALID,103.779,VALID,0,VALID,23.1874,VALID,54,VALID,0,
2010-10-17, 03:31:04,VALID,1007.94,VALID,0,VALID,103.779,VALID,0,VALID,23.1874,VALID,54,VALID,0,
2010-10-17, 03:32:04,VALID,1007.96,VALID,0,VALID,103.779,VALID,0,VALID,23.2087,VALID,54,VALID,0,
2010-10-17, 03:33:04,VALID,1007.93,VALID,0,VALID,103.809,VALID,0,VALID,23.1679,VALID,54,VALID,0,
2010-10-17, 03:34:04,VALID,1007.93,VALID,0,VALID,103.787,VALID,0,VALID,23.1679,VALID,54,VALID,0,
2010-10-17, 03:35:04,VALID,1007.95,VALID,0,VALID,103.794,VALID,0,VALID,23.1485,VALID,54,VALID,0,
2010-10-17, 03:36:04,VALID,1007.94,VALID,0,VALID,103.787,VALID,0,VALID,23.1697,VALID,54,VALID,0,
2010-10-17, 03:37:04,VALID,1007.93,VALID,0,VALID,103.794,VALID,0,VALID,23.1272,VALID,54,VALID,0,
2010-10-17, 03:38:04,VALID,1007.91,VALID,0,VALID,103.802,VALID,0,VALID,23.1485,VALID,54,VALID,0,
2010-10-17, 03:39:04,VALID,1007.9,VALID,0,VALID,103.787,VALID,0.105969,VALID,23.1467,VALID,54,VALID,0,
2010-10-17, 03:40:04,VALID,1007.9,VALID,0,VALID,103.726,VALID,0,VALID,23.2069,VALID,52,VALID,0.267969,
2010-10-17, 03:41:04,VALID,1007.86,VALID,0,VALID,103.771,VALID,0,VALID,23.2051,VALID,52,VALID,0,
2010-10-17, 03:42:04,VALID,1007.85,VALID,0,VALID,103.764,VALID,0.105969,VALID,23.1857,VALID,64,VALID,0.360156,
2010-10-17, 03:43:04,VALID,1007.86,VALID,0,VALID,103.748,VALID,0.105969,VALID,23.2246,VALID,76,VALID,0.121094,
2010-10-17, 03:44:04,VALID,1007.84,VALID,0,VALID,103.787,VALID,0,VALID,23.2051,VALID,76,VALID,0.00820312,
2010-10-17, 03:45:04,VALID,1007.82,VALID,0,VALID,103.764,VALID,0.105969,VALID,23.2051,VALID,76,VALID,0.0078125,
2010-10-17, 03:46:04,VALID,1007.84,VALID,0,VALID,103.756,VALID,0.105969,VALID,23.2246,VALID,76,VALID,0.183984,
2010-10-17, 03:47:04,VALID,1007.84,VALID,0,VALID,103.779,VALID,0.105969,VALID,23.2246,VALID,76,VALID,0,
2010-10-17, 03:48:04,VALID,1007.87,VALID,0,VALID,103.779,VALID,0.105969,VALID,23.2246,VALID,76,VALID,0,
2010-10-17, 03:49:04,VALID,1007.87,VALID,0,VALID,103.787,VALID,0.105969,VALID,23.2246,VALID,76,VALID,0,
2010-10-17, 03:50:04,VALID,1007.87,VALID,0,VALID,103.787,VALID,0.105969,VALID,23.1839,VALID,76,VALID,0.128906,
2010-10-17, 03:51:04,VALID,1007.88,VALID,0,VALID,103.771,VALID,0.105969,VALID,23.2246,VALID,76,VALID,0,
2010-10-17, 03:52:04,VALID,1007.89,VALID,0,VALID,103.779,VALID,0,VALID,23.2069,VALID,76,VALID,0,
2010-10-17, 03:53:04,VALID,1007.89,VALID,0,VALID,103.764,VALID,0,VALID,23.2069,VALID,76,VALID,0,
2010-10-17, 03:54:04,VALID,1007.93,VALID,0,VALID,103.794,VALID,0,VALID,23.1874,VALID,76,VALID,0,
2010-10-17, 03:55:04,VALID,1007.92,VALID,0,VALID,103.771,VALID,0,VALID,23.2069,VALID,76,VALID,0,
2010-10-17, 03:56:04,VALID,1007.92,VALID,0,VALID,103.794,VALID,0,VALID,23.1679,VALID,76,VALID,0,